Weather History for Ord, NE

Change the Weather History Date:

Thursday, December 5, 2013

  Actual Average Record
Temperature  
Mean Temperature 7 °F 27 °F  
Max Temperature 14 °F 39 °F 59 °F (2012)
Min Temperature -1 °F 15 °F -11 °F (2011)
Degree Days  
Heating Degree Days 58    
Month to date heating degree days 202  
Since 1 July heating degree days 1682  
Cooling Degree Days 0    
Month to date cooling degree days 0  
Year to date cooling degree days 907  
Moisture  
Dew Point -8 °F    
Average Humidity 54    
Maximum Humidity 69    
Minimum Humidity 38    
Precipitation  
Precipitation 0.00 in 0.04 in 2.12 in (1913)
Month to date precipitation T 0.23  
Year to date precipitation 24.35 24.58  
Sea Level Pressure  
Sea Level Pressure 30.40 in    
Wind  
Wind Speed 15 mph (NW)    
Max Wind Speed 28 mph    
Max Gust Speed 35 mph    
Visibility 10 miles    
Events      
T = Trace of Precipitation, MM = Missing Value Source: NWS Daily Summary

Daily Weather History Graph

Daily Weather History Graph

Search for Another Location

Airport:

Trip Planner

Search our weather history database for the weather conditions in past years. The results will help you decide how hot, cold, wet, or windy it might be!

Date:

Astronomy

Dec. 05, 2013 Rise Set
Actual Time 7:47 AM CST 5:05 PM CST
Civil Twilight 7:16 AM CST 5:36 PM CST
Nautical Twilight 6:41 AM CST 6:11 PM CST
Astronomical Twilight 6:08 AM CST 6:44 PM CST
Moon 10:07 AM CST (12/5) 8:29 PM CST (12/5)
Length of Visible Light 10h 20m
Length of Day
9h 18m
Waxing Crescent, 11% of the Moon is Illuminated
Dec 5
Waxing Crescent
Dec 9
First Quarter
Dec 17
Full
Dec 25
Last Quarter
Jan 1
New

Hourly Weather History & Observations

Time (CST) Temp. Windchill Dew Point Humidity Pressure Visibility Wind Dir Wind Speed Gust Speed Precip Events Conditions
12:53 AM 6.1 °F -15.2 °F -4.0 °F 63% 30.24 in 10.0 mi NW 23.0 mph 33.4 mph N/A   Clear
1:53 AM 5.0 °F -14.7 °F -5.1 °F 63% 30.27 in 10.0 mi NW 18.4 mph 31.1 mph N/A   Clear
2:53 AM 5.0 °F -17.5 °F -5.1 °F 63% 30.30 in 10.0 mi NW 25.3 mph 34.5 mph N/A   Clear
3:53 AM 3.9 °F -19.0 °F -6.0 °F 64% 30.31 in 10.0 mi NNW 25.3 mph 33.4 mph N/A   Clear
4:53 AM 3.0 °F -13.3 °F -7.1 °F 63% 30.33 in 10.0 mi NW 11.5 mph 25.3 mph N/A   Clear
5:53 AM 3.0 °F -16.7 °F -7.1 °F 63% 30.34 in 10.0 mi NW 17.3 mph 23.0 mph N/A   Clear
6:53 AM 1.9 °F -18.7 °F -8.0 °F 63% 30.35 in 10.0 mi NNW 18.4 mph 26.5 mph N/A   Clear
7:53 AM 1.9 °F -18.7 °F -7.1 °F 66% 30.37 in 10.0 mi NNW 18.4 mph 24.2 mph N/A   Clear
8:53 AM 1.9 °F -18.1 °F -8.0 °F 63% 30.38 in 10.0 mi NW 17.3 mph 26.5 mph N/A   Clear
9:53 AM 5.0 °F -15.2 °F -8.0 °F 55% 30.42 in 10.0 mi NNW 19.6 mph - N/A   Clear
10:53 AM 8.1 °F -9.6 °F -8.0 °F 48% 30.45 in 10.0 mi NW 16.1 mph 24.2 mph N/A   Clear
11:53 AM 10.0 °F -8.1 °F -8.0 °F 44% 30.41 in 10.0 mi NW 18.4 mph 24.2 mph N/A   Clear
12:53 PM 10.9 °F -6.5 °F -9.0 °F 40% 30.38 in 10.0 mi NNW 17.3 mph - N/A   Clear
1:53 PM 12.9 °F -3.9 °F -8.0 °F 39% 30.36 in 10.0 mi North 17.3 mph 25.3 mph N/A   Clear
2:53 PM 12.9 °F -3.4 °F -8.0 °F 39% 30.37 in 10.0 mi NNW 16.1 mph 23.0 mph N/A   Clear
3:53 PM 12.0 °F -5.1 °F -9.0 °F 39% 30.39 in 10.0 mi NNW 17.3 mph - N/A   Clear
4:53 PM 8.1 °F -6.2 °F -9.9 °F 44% 30.44 in 10.0 mi North 10.4 mph - N/A   Clear
5:53 PM 6.1 °F -8.7 °F -9.0 °F 50% 30.46 in 10.0 mi NNW 10.4 mph - N/A   Clear
6:53 PM 1.9 °F -7.6 °F -9.0 °F 60% 30.50 in 10.0 mi NW 4.6 mph - N/A   Clear
7:53 PM 1.0 °F -10.3 °F -8.0 °F 66% 30.49 in 10.0 mi NW 5.8 mph - N/A   Mostly Cloudy
8:53 PM 3.0 °F -6.4 °F -6.0 °F 66% 30.52 in 10.0 mi West 4.6 mph - N/A   Overcast
9:53 PM 3.9 °F -12.2 °F -8.0 °F 58% 30.51 in 10.0 mi NNW 11.5 mph - N/A   Overcast
10:53 PM 3.0 °F -14.1 °F -9.9 °F 55% 30.52 in 10.0 mi NNW 12.7 mph - N/A   Mostly Cloudy
11:53 PM -0.0 °F -16.3 °F -9.9 °F 63% 30.54 in 10.0 mi NNW 10.4 mph - N/A   Clear